Theta_e
309 308 308 309 311 312 310 308 307 306 306 306 307 307 307 306 306 307 306 306 312 310 315 314 310 311 313 311 310 306 308 307 310 308 309 309 310 310 310 313 318 324 324 327 333
308 307 306 307 311 310 312 310 309 308 306 305 305 307 307 306 305 306 305 306 309 310 313 312 309 310 311 311 309 307 307 308 306 308 310 309 309 308 312 311 317 331 330 331 333
309 309 310 307 308 310 310 310 310 309 307 306 305 305 307 305 304 306 308 307 308 308 310 313 313 312 311 309 309 307 307 306 307 308 309 309 309 307 311 312 311 320 331 329 330
307 308 309 307 305 306 309 309 308 308 309 307 306 305 307 305 302 308 307 309 309 309 308 311 313 312 310 311 309 309 308 307 307 309 309 309 308 309 309 311 312 315 328 326 326
303 303 307 306 304 304 305 308 308 306 309 310 307 306 308 305 305 305 307 307 312 310 308 311 314 310 310 309 309 309 309 309 308 307 308 308 308 308 308 307 311 320 327 327 325
306 305 304 305 304 305 306 307 308 306 308 309 309 308 307 304 303 305 305 306 310 313 313 312 312 312 310 310 309 308 309 309 309 309 309 308 307 307 307 307 307 321 324 324 325
304 304 303 305 305 307 307 304 306 308 306 307 308 309 308 307 304 305 304 305 306 311 312 311 312 311 312 314 312 311 312 310 309 309 310 308 309 307 306 306 306 306 313 321 322
305 303 304 302 305 305 305 306 302 305 307 306 306 307 311 307 307 305 306 305 305 309 309 311 312 310 312 312 313 311 309 312 310 309 309 309 310 308 306 305 305 306 305 307 316
304 304 304 305 304 304 304 305 305 306 304 304 307 306 309 308 306 306 305 304 305 307 308 310 310 309 312 313 313 312 309 310 311 308 309 308 309 308 307 305 306 306 304 305 307
303 303 304 304 305 305 305 304 304 305 305 305 305 306 307 307 307 306 306 305 305 305 306 310 310 311 309 312 313 312 312 310 311 310 308 308 308 307 308 306 305 304 304 303 306
301 302 302 303 304 305 305 304 304 304 303 303 303 305 308 307 307 305 305 304 306 307 307 310 311 312 311 313 311 310 311 310 309 309 309 309 309 308 307 307 307 306 305 303 304
299 300 300 301 303 304 304 305 303 301 302 302 303 305 306 307 307 306 306 306 307 308 307 311 312 309 308 310 313 312 311 309 308 308 308 308 308 307 307 308 308 307 306 306 307
299 299 299 299 301 301 303 304 303 302 303 302 302 304 306 307 307 307 306 307 307 308 308 307 306 307 307 309 312 312 313 309 308 309 308 309 308 308 307 307 307 306 306 306 306
298 298 298 299 298 298 301 300 303 302 303 302 304 304 304 306 308 306 306 307 308 309 307 307 306 306 306 307 308 309 309 310 308 309 308 307 310 305 306 307 308 308 306 306 305
297 297 298 298 298 299 299 300 301 301 304 301 302 303 303 306 306 308 306 307 308 307 307 307 306 307 308 307 305 305 306 308 308 308 308 306 306 305 303 304 306 307 306 306 305
297 297 297 297 298 298 298 298 299 304 305 302 302 306 305 306 305 306 307 306 306 306 305 305 303 305 305 306 306 306 307 306 306 307 311 308 307 304 302 304 303 302 301 302 303
297 297 297 297 297 297 297 296 297 305 302 305 304 306 305 305 306 306 307 308 309 308 308 306 304 304 305 306 305 306 306 310 311 312 310 306 306 308 303 302 302 303 301 300 301
296 297 296 297 296 297 297 298 298 301 303 303 304 304 304 305 305 306 306 308 306 305 304 307 308 305 303 305 306 307 308 309 308 310 308 305 309 308 305 306 303 301 300 301 300
296 296 296 296 296 296 296 298 298 299 303 304 304 304 304 305 304 305 306 307 307 306 305 306 304 303 303 303 305 306 310 307 303 295 304 304 304 303 302 302 302 301 301 299 299
296 295 295 294 295 296 297 298 298 299 300 301 304 303 304 304 305 306 304 304 306 306 304 303 305 302 303 303 304 306 307 310 308 304 302 300 304 305 301 300 301 300 299 299 301
295 295 294 294 296 295 296 296 298 299 300 300 301 302 298 301 303 303 302 303 305 306 305 303 303 302 302 305 306 306 308 307 308 304 306 303 300 298 301 300 303 300 299 301 300
293 295 294 295 296 295 296 295 298 298 299 299 298 298 300 294 303 302 301 303 300 304 307 306 306 306 305 303 304 305 306 308 310 311 306 303 301 300 300 299 301 299 299 299 297
294 292 294 295 295 296 293 294 296 299 299 299 299 297 295 297 296 300 298 300 298 301 306 306 307 307 306 304 301 304 305 306 306 303 307 307 302 299 299 299 299 300 299 297 294
293 293 288 295 286 292 295 292 295 298 298 297 297 296 297 296 292 293 297 297 298 299 299 300 307 307 304 304 304 304 305 304 306 308 307 305 302 300 300 300 300 299 296 294 293
292 290 285 292 292 287 293 295 296 295 297 297 297 295 296 295 291 289 294 297 298 299 301 302 304 305 304 301 303 304 304 304 305 306 306 304 304 299 300 300 299 296 294 293 291
292 288 280 281 292 293 293 290 295 295 296 297 295 295 291 291 293 291 293 294 296 295 294 296 298 304 304 302 303 304 303 304 304 305 304 303 301 298 298 295 296 295 294 291 289
288 289 288 289 286 287 286 288 294 296 295 295 296 295 292 290 292 293 291 291 293 294 294 295 294 293 299 299 296 301 304 304 303 303 304 304 303 299 299 298 296 294 292 290 287
Wind_Speed
15 17 20 17 14 14 12 11 8 9 11 13 11 9 12 15 19 19 9 7 1 10 6 6 3 4 2 1 3 4 3 4 7 8 6 2 2 4 1 3 4 4 2 3 24
17 18 17 15 15 14 14 12 13 11 11 13 11 11 13 17 21 16 12 10 6 9 5 4 2 2 1 3 2 4 5 10 6 6 3 2 2 3 3 2 3 3 4 12 23
17 16 13 17 15 12 13 14 14 14 15 13 10 12 13 15 7 4 4 8 15 6 7 3 2 2 3 3 4 5 7 5 4 3 2 1 3 5 2 3 5 6 6 5 8
18 17 14 13 15 17 16 16 17 18 18 15 10 8 10 9 5 2 8 7 5 11 7 4 3 3 5 6 6 4 8 6 3 2 1 1 2 6 2 4 2 6 14 6 7
23 23 19 22 23 25 22 20 20 23 19 17 15 9 5 2 8 8 8 3 1 3 11 3 4 5 6 5 4 3 3 5 6 6 5 3 7 7 5 6 5 4 9 11 9
20 21 23 23 23 21 19 17 15 16 16 14 17 13 5 10 10 8 4 5 4 5 5 8 5 4 4 4 6 2 5 8 7 6 4 4 5 7 7 2 6 7 10 9 10
25 25 25 25 23 20 17 17 16 15 15 16 13 17 12 15 9 3 3 5 9 3 3 13 14 2 4 4 3 4 4 5 5 3 6 5 9 9 12 6 7 9 8 9 11
24 27 25 25 21 21 18 16 18 17 17 17 17 15 16 15 29 26 10 10 8 7 4 4 14 2 3 5 7 3 4 6 3 9 4 10 14 5 13 7 12 12 9 9 11
24 23 23 23 23 21 21 17 16 18 18 19 19 8 12 11 20 23 21 13 9 9 5 5 5 6 3 3 4 4 4 5 3 7 6 9 2 10 11 8 10 10 10 9 9
23 22 22 23 24 24 22 20 20 19 16 17 17 3 9 5 10 23 26 24 5 3 3 4 3 5 4 7 13 5 5 5 8 8 8 9 13 6 5 7 9 9 9 8 10
24 23 23 23 23 25 24 18 7 6 15 10 9 14 1 22 10 15 25 18 3 1 6 4 6 18 32 17 2 4 5 7 4 6 7 15 16 12 11 7 8 7 8 8 11
25 25 24 23 24 22 26 12 18 3 5 23 19 17 28 9 5 4 23 11 10 15 4 5 23 17 8 11 12 10 4 5 4 6 4 7 11 9 15 14 12 11 10 10 5
23 23 24 26 23 24 26 34 26 20 5 7 22 20 9 20 11 14 19 13 16 16 16 12 5 18 10 9 16 19 18 7 4 1 2 2 9 5 6 7 6 8 9 7 10
24 23 23 22 17 23 23 21 28 21 7 11 14 10 18 11 10 11 26 18 9 21 17 15 17 4 8 15 13 14 15 9 7 1 6 3 7 6 6 11 16 14 11 14 11
25 24 24 21 8 6 9 13 28 12 13 11 17 8 16 22 10 18 19 13 14 14 9 12 12 17 15 18 12 12 8 14 9 6 1 6 3 6 6 10 13 17 18 16 13
25 24 23 24 25 24 23 17 16 12 13 3 14 17 16 24 28 9 17 11 5 11 16 26 7 10 17 8 17 5 1 4 4 5 10 16 10 6 7 9 8 7 9 9 9
25 24 22 22 13 20 18 4 7 23 8 6 15 19 27 21 28 21 20 19 13 10 15 13 15 3 5 11 8 8 9 3 5 6 10 10 7 20 5 3 5 4 9 5 8
22 20 23 25 24 17 13 8 14 11 8 1 9 21 27 20 21 28 24 20 18 8 7 13 9 20 5 10 9 17 17 5 9 6 11 8 9 10 11 18 11 3 4 9 9
17 18 19 24 22 21 6 12 5 7 4 8 11 17 15 18 8 21 25 24 22 16 12 12 13 3 12 4 14 7 13 20 3 3 3 5 6 10 8 7 6 9 7 10 12
15 6 19 21 21 16 9 20 8 7 5 9 20 12 13 20 15 18 21 17 17 22 16 7 7 7 19 6 13 13 21 7 7 6 5 5 5 11 3 9 10 10 12 11 12
9 3 5 19 20 5 8 6 5 4 3 6 9 3 2 12 21 11 8 7 25 17 24 11 8 2 11 11 22 13 14 6 6 4 10 5 6 6 10 9 17 14 14 15 13
6 4 5 25 8 3 8 5 4 5 11 3 2 1 4 1 11 11 10 3 2 20 21 20 6 8 17 9 19 22 19 17 9 8 9 3 7 2 4 7 15 15 11 11 11
4 3 12 10 4 5 3 4 6 3 8 10 8 4 3 6 5 6 4 7 4 4 3 12 7 7 8 2 3 15 15 20 17 2 10 12 7 5 2 11 14 19 15 12 11
4 4 2 5 3 6 4 3 5 6 5 2 4 5 4 3 5 5 6 5 9 7 5 2 8 11 13 13 10 10 20 16 19 13 13 13 7 2 5 17 15 14 13 12 10
4 5 5 5 3 5 7 6 2 1 0 5 2 3 7 3 3 3 1 2 1 1 6 4 6 11 16 8 9 18 19 24 20 23 17 17 19 10 13 17 17 15 13 14 11
6 4 2 4 10 5 10 6 12 5 3 2 3 10 4 7 7 7 6 3 5 1 2 3 4 10 23 12 13 16 21 22 24 24 16 11 5 9 9 8 11 12 13 12 11
6 4 5 7 4 6 5 7 10 8 3 7 11 6 3 7 5 4 6 4 5 7 4 5 4 4 9 9 8 5 17 18 21 24 22 14 11 9 9 14 15 13 11 12 11
Wind_Direction
294 284 291 296 287 275 282 293 304 294 302 308 313 327 336 334 328 320 262 253 292 244 297 276 275 222 217 254 193 120 97 216 211 167 233 335 10 330 276 109 52 14 135 292 156
281 276 278 289 283 284 268 273 281 294 307 317 301 311 322 329 320 291 284 258 264 249 250 231 239 204 167 217 211 137 165 214 211 201 200 325 340 323 319 141 43 29 12 132 154
291 285 269 275 285 281 283 271 277 281 288 295 317 299 313 332 329 257 353 323 218 241 235 215 287 236 201 170 204 186 200 205 242 191 135 203 296 325 240 219 200 185 187 181 164
287 286 278 276 277 283 279 277 277 273 272 269 276 293 299 338 278 135 17 2 219 241 241 231 219 189 197 200 217 186 231 218 210 177 138 169 294 310 314 281 242 212 172 172 187
282 286 280 281 278 280 280 270 266 268 269 255 261 267 284 259 249 260 312 268 294 205 217 203 204 181 186 197 218 217 250 220 228 252 261 180 222 223 254 246 327 104 150 178 194
285 281 279 275 276 274 267 266 263 260 265 259 253 251 203 238 257 247 248 249 238 228 214 203 218 242 250 231 173 211 203 260 276 228 228 220 247 163 247 197 204 176 193 199 197
283 283 281 276 273 258 257 259 263 263 263 266 267 246 222 235 236 171 215 288 242 214 214 221 236 332 354 296 302 252 269 272 239 219 211 173 273 223 233 211 237 223 223 214 213
277 274 275 276 264 257 254 254 265 263 264 271 272 267 258 241 244 241 239 287 243 230 220 233 230 278 215 314 339 217 158 228 238 170 231 147 241 260 237 189 232 245 230 218 223
281 280 275 268 264 258 253 251 253 258 265 266 268 241 264 214 202 229 228 228 230 238 246 247 165 175 182 147 341 265 215 202 293 202 178 192 222 229 233 195 233 240 238 234 235
281 281 278 273 260 255 252 250 251 251 250 255 254 249 236 189 178 218 220 210 220 230 256 195 165 172 182 177 213 191 197 222 201 220 203 220 234 291 236 191 221 244 254 228 231
281 278 278 275 268 256 246 246 234 238 208 206 197 214 151 210 176 198 191 183 176 232 191 215 184 208 211 204 170 195 200 213 223 242 208 241 249 230 253 250 234 238 263 246 228
278 274 277 278 271 265 247 223 211 203 223 218 244 229 237 164 175 164 165 163 185 205 191 188 218 213 153 194 214 237 228 243 289 255 179 286 266 224 226 242 239 246 236 245 229
275 272 268 264 269 271 262 239 224 231 256 211 215 230 214 213 201 179 169 184 192 200 197 207 196 195 185 176 199 220 221 201 200 21 242 347 284 202 245 251 244 238 228 230 219
270 269 266 263 261 255 246 250 240 205 239 204 194 237 196 208 230 180 187 172 206 206 201 232 240 169 196 211 190 217 221 228 213 199 250 148 275 264 215 224 236 236 225 232 221
266 263 262 247 230 226 240 251 237 179 240 189 192 168 179 193 133 188 190 207 200 175 172 214 177 216 229 218 199 233 176 193 197 201 189 241 258 252 201 226 237 242 238 236 218
263 259 260 258 250 249 248 260 278 216 236 190 158 170 159 197 210 143 188 197 153 202 200 223 172 184 224 177 200 155 167 113 148 188 230 225 193 231 193 215 238 250 248 228 193
264 258 251 248 239 238 242 192 250 221 133 180 175 173 186 190 204 193 197 196 184 183 194 214 222 236 154 193 194 184 152 186 207 201 225 206 185 242 241 248 229 257 274 158 119
265 254 251 243 242 226 192 222 229 256 168 193 166 182 192 179 205 198 200 206 200 214 179 201 200 218 185 198 194 205 200 183 199 199 229 119 211 238 229 233 237 49 129 123 110
259 253 252 247 236 222 218 232 223 221 195 166 183 173 195 190 151 200 212 208 205 202 203 195 224 169 203 154 165 194 202 213 78 38 117 199 266 299 237 236 161 132 130 116 108
241 231 245 244 227 200 232 238 247 201 229 243 192 173 178 183 183 194 193 209 213 199 216 214 219 204 206 142 206 182 196 177 205 172 210 239 229 224 173 190 162 146 141 123 116
190 223 245 212 184 194 230 226 213 223 183 193 244 256 223 171 184 178 187 183 209 207 204 203 200 249 137 194 196 204 196 208 188 185 215 222 238 220 212 186 175 155 148 138 125
145 225 185 167 195 220 231 191 181 206 198 213 123 91 233 171 182 186 187 155 2 200 205 209 220 212 198 196 215 203 202 203 213 192 227 224 255 3 260 188 151 140 128 119 115
176 198 179 171 215 206 213 204 205 153 173 169 169 167 249 163 116 134 147 158 142 136 231 191 202 187 184 247 339 203 205 207 215 123 202 211 240 13 93 138 147 138 137 128 119
141 192 266 201 154 163 191 193 178 164 172 110 109 126 98 351 27 175 170 166 149 156 246 220 223 214 208 197 157 183 209 206 204 217 219 213 241 63 128 138 141 140 133 125 117
156 209 188 189 188 168 174 173 125 111 236 138 160 157 147 142 41 139 188 75 86 160 111 182 248 224 217 237 173 192 203 205 206 215 210 219 221 180 172 161 155 143 133 123 115
163 151 360 171 145 148 175 213 177 174 145 182 192 202 153 161 179 183 148 175 191 257 114 100 330 301 227 207 194 204 212 209 208 215 220 220 227 172 154 120 137 148 137 128 122
152 111 125 171 112 128 208 188 194 141 203 200 205 130 180 209 168 170 170 144 155 155 133 131 100 12 297 182 117 225 206 200 204 217 210 202 205 140 146 158 155 149 143 134 126